Вернуться в каталог

COSMOS 397 DEB

АктивенLEO
NORAD 5155·DEBRIS·🇷🇺 Russia

Запущен Feb 25, 1971 с Baikonur Cosmodrome

Loading…

Ближайшие Пролёты (ближайшие 24 часа)

TLE

СвежийSource: Space-Track

Эпоха: Sep 13, 2026, 20:25 UTC

1 05155U 71015AJ  26256.85132257  .00003777  00000-0  43737-3 0  9995
2 05155  65.3511  65.7749 0289235 308.9264  48.6371 14.61208485760683

Отслеживайте COSMOS 397 DEB в реальном времени с AllMySat

Download on the App Store